Moffett NAS, CA

10:53 PM PDT on April 23, 2017 (GMT -0700)
Moffett Federal Air Field

Weather History for KNUQ - November, 2012

Change the Weather History Date:

Wednesday, November 21, 2012

  Actual Average Record
Temperature  
Mean Temperature 58 °F 55 °F  
Max Temperature 66 °F 63 °F 74 °F (1950)
Min Temperature 49 °F 46 °F 32 °F (1947)
Degree Days  
Heating Degree Days 7    
Month to date heating degree days 144  
Since 1 July heating degree days 255  
Cooling Degree Days 0    
Month to date cooling degree days 6  
Year to date cooling degree days 321  
Growing Degree Days 8 (Base 50)    
Moisture  
Dew Point 54 °F    
Average Humidity 80    
Maximum Humidity 100    
Minimum Humidity 60    
Precipitation  
Precipitation 0.32 in 0.07 in 0.59 in (1981)
Month to date precipitation 1.08 1.11  
Year to date precipitation 7.28 11.59  
Since 1 July precipitation 1.77  
Sea Level Pressure  
Sea Level Pressure 30.15 in    
Wind  
Wind Speed 5 mph (North)    
Max Wind Speed 17 mph    
Max Gust Speed 24 mph    
Visibility 8 miles    
Events Rain    
T = Trace of Precipitation, MM = Missing Value Source: NWS Daily Summary

Daily Weather History Graph

Daily Weather History Graph

Search for Another Location

Airport or City:

Trip Planner

Search our weather history database for the weather conditions in past years. The results will help you decide how hot, cold, wet, or windy it might be!

Date:

Astronomy

Nov. 21, 2012 Rise Set
Actual Time 6:54 AM PST 4:53 PM PST
Civil Twilight 6:26 AM PST 5:21 PM PST
Nautical Twilight 5:54 AM PST 5:53 PM PST
Astronomical Twilight 5:23 AM PST 6:24 PM PST
Moon 1:06 PM PST (11/21) 12:26 AM PST (11/21)
Length of Visible Light 10h 55m
Length of Day
9h 59m
Waxing Gibbous, 63% of the Moon is Illuminated
Nov 21
Waxing Gibbous
Nov 28
Full
Dec 6
Last Quarter
Dec 13
New
Dec 19
First Quarter

Hourly Weather History & Observations

Time (PST) Temp. Dew Point Humidity Pressure Visibility Wind Dir Wind Speed Gust Speed Precip Events Conditions
12:56 AM 63.0 °F 55.0 °F 75% 30.06 in 10.0 mi SE 12.7 mph 20.7 mph 0.00 in   Overcast
1:03 AM 62.6 °F 55.4 °F 77% 30.05 in 10.0 mi SE 12.7 mph 18.4 mph N/A   Overcast
1:56 AM 62.1 °F 55.0 °F 78% 30.06 in 10.0 mi SE 12.7 mph 19.6 mph 0.01 in Rain Light Rain
2:56 AM 61.0 °F 55.9 °F 83% 30.06 in 10.0 mi SE 8.1 mph - 0.00 in Rain Light Rain
3:56 AM 60.1 °F 55.0 °F 83% 30.06 in 10.0 mi SE 10.4 mph - 0.00 in   Overcast
4:56 AM 59.0 °F 57.0 °F 93% 30.07 in 3.0 mi Calm Calm - 0.07 in Rain Rain
5:03 AM 59.0 °F 57.2 °F 94% 30.07 in 2.5 mi Calm Calm - 0.04 in Rain Heavy Rain
5:28 AM 59.0 °F 57.2 °F 94% 30.08 in 4.0 mi Calm Calm - 0.15 in Rain Rain
5:56 AM 59.0 °F 57.0 °F 93% 30.10 in 4.0 mi Calm Calm - 0.17 in Rain Light Rain
6:04 AM 59.0 °F 57.2 °F 94% 30.10 in 3.0 mi Calm Calm - 0.00 in Rain Light Rain
6:11 AM 59.0 °F 57.2 °F 94% 30.10 in 2.0 mi Calm Calm - 0.01 in Rain Light Rain
6:25 AM 59.0 °F 57.2 °F 94% 30.11 in 4.0 mi NNW 4.6 mph - 0.02 in Rain Light Rain
6:56 AM 57.9 °F 57.0 °F 97% 30.13 in 4.0 mi North 4.6 mph - 0.04 in Rain Light Rain
7:37 AM 57.2 °F 57.2 °F 100% 30.14 in 2.5 mi North 3.5 mph - 0.02 in Rain Light Rain
7:42 AM 59.0 °F 57.2 °F 94% 30.14 in 1.8 mi NNW 3.5 mph - 0.02 in Rain Light Rain
7:56 AM 59.0 °F 57.9 °F 96% 30.16 in 2.0 mi North 5.8 mph - 0.03 in Rain Light Rain
8:07 AM 57.2 °F 57.2 °F 100% 30.15 in 4.0 mi Calm Calm - 0.00 in Rain Light Rain
8:38 AM 59.0 °F 57.2 °F 94% 30.17 in 10.0 mi Calm Calm - 0.00 in   Overcast
8:56 AM 59.0 °F 57.0 °F 93% 30.18 in 10.0 mi Calm Calm - 0.00 in   Overcast
9:13 AM 60.8 °F 57.2 °F 88% 30.18 in 10.0 mi Calm Calm - N/A   Overcast
9:56 AM 62.1 °F 57.9 °F 86% 30.19 in 10.0 mi ENE 3.5 mph - N/A   Scattered Clouds
10:08 AM 62.6 °F 57.2 °F 82% 30.19 in 10.0 mi ENE 3.5 mph - N/A   Mostly Cloudy
10:20 AM 62.6 °F 57.2 °F 82% 30.19 in 10.0 mi Calm Calm - N/A   Overcast
10:46 AM 62.6 °F 57.2 °F 82% 30.19 in 10.0 mi NNE 4.6 mph - N/A   Scattered Clouds
10:56 AM 62.1 °F 57.0 °F 84% 30.20 in 10.0 mi NNE 4.6 mph - N/A   Mostly Cloudy
11:20 AM 62.6 °F 57.2 °F 82% 30.19 in 10.0 mi NNE 3.5 mph - N/A   Mostly Cloudy
11:31 AM 62.6 °F 57.2 °F 82% 30.18 in 10.0 mi NE 4.6 mph - N/A   Mostly Cloudy
11:40 AM 64.4 °F 57.2 °F 77% 30.18 in 10.0 mi NE 4.6 mph - N/A   Scattered Clouds
11:56 AM 64.0 °F 55.9 °F 75% 30.18 in 10.0 mi NNE 5.8 mph - N/A   Partly Cloudy
12:56 PM 64.9 °F 54.0 °F 68% 30.17 in 10.0 mi NNW 11.5 mph - N/A   Scattered Clouds
1:56 PM 62.1 °F 52.0 °F 70% 30.17 in 10.0 mi NNW 12.7 mph - N/A   Mostly Cloudy
2:56 PM 63.0 °F 53.1 °F 70% 30.17 in 10.0 mi NNW 9.2 mph 18.4 mph N/A   Clear
3:56 PM 63.0 °F 48.9 °F 60% 30.17 in 10.0 mi NW 9.2 mph - N/A   Clear
4:56 PM 60.1 °F 48.0 °F 64% 30.17 in 10.0 mi WNW 5.8 mph - N/A   Clear
5:56 PM 57.9 °F 46.0 °F 65% 30.19 in 10.0 mi NW 5.8 mph - N/A   Clear
6:56 PM 55.9 °F 45.0 °F 67% 30.20 in 10.0 mi WNW 4.6 mph - N/A   Clear
7:56 PM 55.0 °F 45.0 °F 69% 30.22 in 10.0 mi WNW 3.5 mph - N/A   Clear
8:56 PM 54.0 °F 45.0 °F 72% 30.22 in 10.0 mi WSW 3.5 mph - N/A   Clear
9:56 PM 52.0 °F 44.1 °F 74% 30.23 in 10.0 mi Calm Calm - N/A   Clear
10:56 PM 51.1 °F 44.1 °F 77% 30.24 in 10.0 mi Calm Calm - N/A   Clear
11:56 PM 48.9 °F 41.0 °F 74% 30.23 in 10.0 mi Calm Calm - N/A   Clear